Location: Mountain Grove
(34.0887°N, 86.6172°W)
Time: 00:52:08
(UTC+00:00)

Cosmos 2084 - Pass Details

Date: 14 July 2020
Orbit: 571 x 612 km, 62.8° (Epoch: 12 August)

Event Time Altitude Azimuth Distance (km) Brightness Sun altitude
Rises 01:56:33 0° 330° (NNW) 2,876 8.3 -11.0°
Reaches altitude 10° 01:58:50 10° 333° (NNW) 1,966 7.2 -11.4°
Maximum altitude 02:03:17 72° 58° (ENE) 640 3.5 -12.1°
Enters shadow 02:06:28 18° 140° (SE) 1,476 4.9 -12.6°
